This demonstration page uses our WeatherBlox Daily Observations layout. Learn more.

Left ArrowRight Arrow

39.92423, -83.80882

Hourly Observations for January 18, 2015

Temp ( °F °C ) Dew Point ( °F °C ) Humidity (%) Winds ( mph kmh ) Pressure ( in mb ) Visibility ( mi km ) Precip ( " mm )
12:56 am 00:56 Cloudy 44 6.6 31 -0.5 61 61 SSW 12 19 29.79 1009 10 16 0.00 0.00
1:56 am 01:56 Cloudy 44 6.6 32 0 63 63 SW 13 20 29.78 1008 10 16 0.00 0.00
2:56 am 02:56 Cloudy 43 6.1 34 1.1 71 71 SW 12 19 29.78 1009 9 14 0.00 0.00
3:18 am 03:18 Cloudy with Light Rain 41 5 36 2 81 81 WSW 20 31 29.80 1009 6 10 0.00 0.03
3:56 am 03:56 Cloudy with Light Rain 40 4.4 37 2.7 89 89 W 20 31 29.80 1009 5 8 0.02 0.51
4:28 am 04:28 Cloudy 37 3 36 2 93 93 SW 9 15 29.83 1010 8 13 0.01 0.25
4:56 am 04:56 Cloudy 38 3.3 34 1.1 86 86 SW 10 17 29.80 1009 9 14 0.01 0.25
5:35 am 05:35 Mostly Cloudy with Light Rain 37 3 34 1 87 87 SW 13 20 29.80 1009 7 11 0.00 0.03
5:43 am 05:43 Cloudy with Light Rain 37 3 34 1 87 87 SSW 9 15 29.80 1009 8 13 0.00 0.03
5:56 am 05:56 Cloudy 37 2.7 33 0.5 86 86 SSW 9 15 29.80 1009 10 16 0.00 0.03
6:56 am 06:56 Mostly Cloudy 36 2.2 33 0.5 89 89 SW 10 17 29.82 1010 9 14 0.00 0.00
7:10 am 07:10 Cloudy with Light Rain 36 2 34 1 93 93 SW 17 28 29.83 1010 5 8 0.01 0.25
7:33 am 07:33 Cloudy 36 2 34 1 93 93 SW 13 20 29.83 1010 9 14 0.01 0.25
7:56 am 07:56 Cloudy 36 2.2 34 1.1 93 93 SSW 10 17 29.83 1010 8 13 0.01 0.25
8:03 am 08:03 Cloudy 36 2 34 1 93 93 SW 13 20 29.83 1010 8 13 0.00 0.00
8:20 am 08:20 Cloudy 36 2 36 2 100 100 SW 13 20 29.83 1010 8 13 0.00 0.00
8:46 am 08:46 Cloudy 36 2 36 2 100 100 SW 15 24 29.85 1011 7 11 0.00 0.00
8:56 am 08:56 Cloudy 37 2.7 35 1.6 93 93 SW 13 20 29.84 1010 7 11 0.00 0.00
9:56 am 09:56 Cloudy 37 2.7 34 1.1 89 89 WSW 17 28 29.85 1011 8 13 0.00 0.00
10:06 am 10:06 Cloudy 37 3 34 1 87 87 WSW 16 26 29.85 1011 7 11 0.00 0.00
10:56 am 10:56 Cloudy 37 2.7 33 0.5 86 86 WSW 15 24 29.87 1012 8 13 0.00 0.00
11:56 am 11:56 Cloudy 37 2.7 32 0 83 83 WSW 14 22 29.87 1012 8 13 0.00 0.00
12:56 pm 12:56 Cloudy 37 2.7 33 0.5 86 86 WSW 20 31 29.85 1011 8 13 0.00 0.00
1:16 pm 13:16 Mostly Cloudy 37 3 34 1 87 87 WSW 14 22 29.85 1011 7 11 0.00 0.00
1:26 pm 13:26 Cloudy 37 3 34 1 87 87 W 23 37 29.85 1011 8 13 0.00 0.00
1:56 pm 13:56 Cloudy 37 2.7 32 0 83 83 WSW 13 20 29.86 1011 8 13 0.00 0.00
2:56 pm 14:56 Cloudy 37 2.7 33 0.5 86 86 WSW 15 24 29.87 1012 8 13 0.00 0.00
3:39 pm 15:39 Cloudy 37 3 32 0 81 81 W 16 26 29.91 1013 8 13 0.00 0.00
3:56 pm 15:56 Cloudy 37 2.7 32 0 83 83 WSW 15 24 29.90 1013 8 13 0.00 0.00
4:08 pm 16:08 Cloudy 37 3 32 0 81 81 W 15 24 29.91 1013 8 13 0.00 0.00
4:17 pm 16:17 Cloudy 37 3 32 0 81 81 W 16 26 29.91 1013 8 13 0.00 0.00
4:56 pm 16:56 Cloudy 37 2.7 32 0 83 83 SW 9 15 29.92 1013 9 14 0.00 0.00
5:56 pm 17:56 Cloudy 37 2.7 32 0 83 83 SSW 7 11 29.95 1014 10 16 0.00 0.00
6:56 pm 18:56 Cloudy 36 2.2 32 0 86 86 SSW 6 9 29.97 1015 10 16 0.00 0.00
7:32 pm 19:32 Cloudy 36 2 32 0 87 87 SSW 5 7 30.00 1016 9 14 0.00 0.00
7:56 pm 19:56 Cloudy 36 2.2 32 0 86 86 WSW 9 15 29.98 1015 10 16 0.00 0.00
8:56 pm 20:56 Cloudy 35 1.6 31 -0.5 86 86 WSW 9 15 29.99 1016 10 16 0.00 0.00
9:08 pm 21:08 Cloudy 36 2 30 -1 81 81 SW 8 13 30.03 1017 10 16 0.00 0.00
9:56 pm 21:56 Cloudy 35 1.6 30 -1.1 82 82 W 10 17 30.00 1016 10 16 0.00 0.00
10:56 pm 22:56 Mostly Cloudy 34 1.1 30 -1.1 85 85 WSW 10 17 30.01 1016 10 16 0.00 0.00
11:56 pm 23:56 Clear 32 0 29 -1.6 89 89 SW 8 13 30.04 1017 10 16 0.00 0.00

Powered by AerisWeather